DECAYED

STARLINK-1009, 44715 (Decayed)

Orbit data source: Space-Track

STARLINK-1009, 44715 was a payload satellite owned by SpaceX/Seattle (US) in LEO that was launched on Mon, 11 Nov 2019 UTC via an FALCON 9 launch vehicle from the Air Force Eastern Test Range (AFETR). Payload-class satellites include a variety of spacecraft equipped with specific instruments for various scientific and technological missions. These include communications satellites like Starlink; space stations such as the ISS; scientific satellites like the Hubble; Earth observation satellites from companies like Planet Labs, Umbra, and HawkEye 360; GPS; miniature CubeSats for education and research; and military/defense satellites.

Not visible in the next 10 days
Identifier
44715, 2019-074C
Orbit
Decayed
Country
Flag of USUS
Related business
Manufacturer
SpaceX/Seattle
Mission
Decayed Commercial Communications
Bus & Motor
STARLINK, Unknown motor
Mass
260 kg wet, ~248 kg dry
Launch date (UTC)
2019-11-11 (6 years ago)
Launch vehicle
FALCON 9
Launch site
Air Force Eastern Test Range (AFETR)
Object type
Payload
Rocket body
Debris
Shape & HBR
Box + 1 Pan, 10.1 m
Radar Cross Section
13.562 m², Large (>1 m²)

Expand to show TLE details & history
Last TLE update: 11 months ago

TLE from 11 months ago
0 STARLINK-1009
1 44715U 19074C   25051.97860900 -.00003920  12394-4  00000+0 0  9991
2 44715  53.0299  55.4341 0004716 191.0814 254.1824 16.41172483291998
Epoch: 2025-02-20T23:29Z
TLE epoch observation values (Epoch: 2025-02-20T23:29:11.817Z)
Latitude
52.9236°
Longitude
-5.95027°
Altitude
169.945 km
Speed
7.81 km/s
True Right ascension
09h 09m 58s
True Declination
52° 44' 35"
Sunlit
Object was in full shadow at epoch
Visualization orbit readout
Latitude
Unknown
Longitude
Unknown
Altitude
Unknown
Speed
Unknown
Apparent Right ascension
Unknown
Apparent Declination
Unknown
Sunlit
N/A
Visualization observer readout
Local Sidereal Time
04:15:15
Azimuth
Unknown
Elevation
Unknown
Doppler factor
Unknown
Orbital elements
Apogee altitude
166.061 km
Perigee altitude
159.891 km
Semi-major axis
6,541.113 km
Eccentricity
0.00047
Inclination
53.0299°
RAAN
55.4341°
Arg. of periapsis
191.0814°
True anomaly
254.13041°
Mean anomaly
254.1824°
Eccentric anomaly
254.15641°
Mean motion
4.10266 °/min
Orbital period
87.75 mins
BSTAR
0
Loading maneuver chart data...
Computing Atmospheric mass density...
Loading historical data...
Loading historical data...
Loading historical data...
Loading historical data...
Loading historical data...
Loading historical data...
Loading historical data...

Documentation

Showing up to 5 results
|